Location: Mococo
(38.0255°N, 122.1161°W)
Time: 02:42:52
(UTC+00:00)

COSMOS 2455 - Pass Details

Date: 13 February 2026
Orbit: 900 x 909 km, 67.1° (Epoch: 13 March)

Event Time Altitude Azimuth Distance (km) Brightness Sun altitude
Exits shadow 12:23:01 60° 130° (SE) 1,029 3.1 -31.6°
Maximum altitude 12:23:21 61° 113° (ESE) 1,020 3.2 -31.5°
Drops below altitude 10° 12:29:17 10° 35° (NE) 2,596 5.7 -30.3°
Sets 12:31:49 0° 32° (NNE) 3,542 6.4 -29.8°
